Location: Newark
(42.7133°N, 87.7910°W)
Time: 09:08:45
(UTC+00:00)

A-11 Canister half - Pass Details

Date: 29 September 2019
Orbit: 1527 x 1682 km, 47.3° (Epoch: 13 October)

Event Time Altitude Azimuth Distance (km) Brightness Sun altitude
Exits shadow 11:10:09 - 285° (WNW) 4,079 10.6 -7.4°
Reaches altitude 10° 11:11:15 10° 286° (WNW) 3,732 10.4 -7.2°
Maximum altitude 11:20:43 71° 11° (N) 1,657 9.3 -5.5°
Drops below altitude 10° 11:30:29 10° 95° (E) 3,846 13.1 -3.7°
Sets 11:33:40 0° 98° (E) 4,852 14.3 -3.1°
